Regional Weather Roundup
Issued by NWS

Home | Current Version | Previous Version | Text Only | Print | Product List | Glossary On
Versions: 1 2 3 4 5 6 7 8 9 10 11 12 13 14 15 16 17 18 19 20 21 22 23 24 25 26 27 28 29 30 31 32 33 34 35 36 37 38 39 40 41 42 43 44 45 46 47 48 49 50
000
ASUS43 KMPX 042210
RWRMN
WEATHER ROUNDUP FOR MINNESOTA
NATIONAL WEATHER SERVICE TWIN CITIES/CHANHASSEN MN
500 PM CDT SAT JUL 04 2015


NOTE: "FAIR" INDICATES FEW OR NO CLOUDS BELOW 12,000 FEET WITH NO
SIGNIFICANT WEATHER AND/OR OBSTRUCTIONS TO VISIBILITY. N/A MEANS
CURRENT SKY AND/OR WEATHER CONDITIONS ARE NOT AVAILABLE.

MNZ060>063-068>070-042300-
   Twin Cities Metro

CITY           SKY/WX    TMP DP  RH WIND       PRES   REMARKS
TWIN CITIES    MOSUNNY   84  62  47 S10       29.91F HAZE
ST PAUL        SUNNY     83  66  56 S10       29.91F HAZE
CRYSTAL        MOSUNNY   86  64  47 S12       29.89F HAZE
BLAINE         MOSUNNY   86  64  48 SW5       29.90F
LAKEVILLE      MOSUNNY   81  66  61 S7        29.93S HAZE
EDEN PRAIRIE   PTSUNNY   84  66  54 S7        29.90F HAZE
SOUTH ST PAUL  SUNNY     84  62  46 S8        29.91F HAZE
LAKE ELMO      FAIR      82  64  54 S9        29.93F
$$
MNZ001>005-007-008-013>017-022>024-027-028-042300-
   Northwest Minnesota

CITY           SKY/WX    TMP DP  RH WIND       PRES   REMARKS
BEMIDJI        SUNNY     81  62  51 S13       29.86F HAZE
HALLOCK        SUNNY     84  68  58 S16G23    29.74F HAZE
ROSEAU         SUNNY     82  68  61 S14       29.79F HAZE
WARROAD        SUNNY     82  66  57 S9        29.80F HAZE
THIEF RVR FALL MOSUNNY   82  66  57 S14       29.80F
CROOKSTON      SUNNY     84  66  54 S16       29.79F
FOSSTON        MOSUNNY   81  66  61 S10G18    29.84S HAZE
DETROIT LAKES  SUNNY     82  64  54 S10       29.87F
MOORHEAD       SUNNY     82  66  57 S13       29.81F
PARK RAPIDS    CLOUDY    83  63  50 S13       29.87F HAZE
MAHNOMEN       FAIR      81  66  59 S14G20    29.83F
$$
MNZ006-009>011-018-025>026-042300-
   North Central Minnesota

CITY           SKY/WX    TMP DP  RH WIND       PRES   REMARKS
BAUDETTE       SUNNY     80  61  52 S14       29.82F HAZE
FLAG ISLAND    MOSUNNY   75  66  73 S10       29.78F
INTL FALLS     SUNNY     80  58  46 SW9G18    29.85F
WASKISH        SUNNY     81  61  50 S8        29.84F
BIG FORK       SUNNY     81  57  44 S10G16    29.89F
LONGVILLE      MOSUNNY   81  63  54 S9        29.89F HAZE
GRAND RAPIDS   SUNNY     81  55  41 S9        29.90F
CRANE LAKE     SUNNY     79  55  44 S5        29.90F
ORR            SUNNY     81  54  39 S6        29.86F
COOK           SUNNY     81  55  41 S6        29.89F
WALKER         FAIR      80  63  54 SE8       29.87F HAZE
$$
MNZ012-019>021-037-042300-
   Northeast Minnesota

CITY           SKY/WX    TMP DP  RH WIND       PRES   REMARKS
DULUTH         SUNNY     73  58  59 SE12      29.94F
ELY            MOSUNNY   79  55  44 S9        29.92S
HIBBING        SUNNY     80  57  45 SE13      29.90F
DULUTH HARBOR  SUNNY     66  61  82 NE8       29.94F
TWO HARBORS    SUNNY     75  63  64 E9        29.92F
SILVER BAY     SUNNY     72  57  60 NE7       29.94F
GRAND MARAIS     N/A     59  53  80 E5        29.97S
G MARAIS ARPRT MOSUNNY   66  48  52 E7        30.00F
$$
MNZ029>031-032-039>041-046>048-054>057-064-042300-
   West Central Minnesota

CITY           SKY/WX    TMP DP  RH WIND       PRES   REMARKS
FERGUS FALLS   SUNNY     82  66  57 S17       29.84F
WHEATON        SUNNY     81  64  57 S13       29.85F
MORRIS         SUNNY     84  63  48 S15       29.86F
ALEXANDRIA     SUNNY     82  65  56 S14       29.90F
ELBOW LAKE     FAIR      82  65  57 S16       29.86F
WADENA         MOSUNNY   82  64  54 S14       29.87F HAZE
GLENWOOD       MOSUNNY   82  66  57 S12       29.90F
APPLETON       SUNNY     88  59  37 S12G17    29.86F
BENSON         SUNNY     82  63  51 S10       29.88S
ORTONVILLE     SUNNY     84  64  51 S9        29.85F
MADISON        SUNNY     84  63  48 S10G16    29.86F
WILLMAR          N/A     82  66  57 S5        29.90F
$$
MNZ033>034-036-042>043-049>051-058-059-042300-
   Central Minnesota

CITY           SKY/WX    TMP DP  RH WIND       PRES   REMARKS
ST CLOUD       SUNNY     84  65  52 SE8       29.89F HAZE
SAUK CENTRE    FAIR     N/A N/A N/A S8        29.89F
PAYNESVILLE    MOSUNNY   80  65  62 SE6       29.90F
AITKIN         SUNNY     81  64  57 SE10      29.89F HAZE
PINE RIVER       N/A     81  64  57 S12       29.91F HAZE
BRAINERD       CLOUDY    83  60  45 S8        29.89F HAZE
STAPLES        MOSUNNY   82  63  51 S10       29.88F HAZE
LONG PRAIRIE   FAIR      79  68  69 S10       29.90F
LITTLE FALLS   SUNNY     84  59  42 SE7       29.89F HAZE
LITCHFIELD     SUNNY     84  70  61 S5        29.90F
BUFFALO        MOSUNNY   83  65  53 S8        29.91F
MAPLE LAKE     MOSUNNY   83  70  63 S6        29.91F
$$
MNZ037-044-045-052-053-042300-
   East Central Minnesota

CITY           SKY/WX    TMP DP  RH WIND       PRES   REMARKS
PRINCETON      MOSUNNY   84  66  54 S7        29.90F
MORA           SUNNY     81  61  50 S8        29.92F HAZE
CAMBRIDGE      SUNNY     86  66  51 S5        29.89F HAZE
RUSH CITY      MOSUNNY   82  64  55 S7        29.91F
MOOSE LAKE     SUNNY     81  59  47 SW7       29.90F
HINCKLEY       FAIR      82  64  54 S6        29.91F HAZE
CLOQUET        SUNNY     73  61  64 SE7       29.93F
MCGREGOR       PTSUNNY   81  61  50 S13       29.91F
$$
MNZ071>073-080-081-089-090-097-098-042300-
   Southwest Minnesota

CITY           SKY/WX    TMP DP  RH WIND       PRES   REMARKS
MONTEVIDEO     MOSUNNY   84  64  51 SW8G17    29.89S
GRANITE FALLS  SUNNY     82  66  56 S12       29.90F
CANBY          SUNNY     82  61  48 S12       29.88F
MARSHALL       SUNNY     82  61  47 S14         N/A
REDWOOD FALLS  MOSUNNY   84  63  49 S15       29.89F
OLIVIA         SUNNY     81  61  50 S9        29.89F
PIPESTONE      SUNNY     79  63  57 SW9       29.93S
WINDOM         MOSUNNY   82  61  47 S8        29.93F
WORTHINGTON    MOSUNNY   81  61  50 S14       29.94S
JACKSON        MOSUNNY   81  63  54 S13       29.95F
TRACY          SUNNY     83  63  51 S10       29.91F
SLAYTON        SUNNY     81  59  47 S10       29.94S
$$
MNZ065>067-074>077-082>085-091>093-042300-
   South Central Minnesota

CITY           SKY/WX    TMP DP  RH WIND       PRES   REMARKS
MANKATO        SUNNY     81  63  54 S9        29.94S
NEW ULM        SUNNY     81  63  54 S9        29.92F
ST JAMES       SUNNY     82  64  54 S9        29.94S
FAIRMONT       MOSUNNY   81  61  50 S10       29.94S
GLENCOE        SUNNY     84  69  60 S9        29.91F
FARIBAULT      SUNNY     82  64  54 S8        29.95S
OWATONNA       SUNNY     82  61  47 SW9       29.96S
WASECA         MOSUNNY   79  63  57 SW8       29.97S
ALBERT LEA     MOSUNNY   81  61  50 SW5       29.97S
$$
MNZ078>079-086>088-094>096-042300-
   Southeast Minnesota

CITY           SKY/WX    TMP DP  RH WIND       PRES   REMARKS
ROCHESTER      MOSUNNY   81  64  56 SW9       29.98R
RED WING       MOSUNNY   84  63  48 S6        29.92S HAZE
STANTON        MOSUNNY   82  64  54 SW8       29.93S
DODGE CENTER   MOSUNNY   81  64  57 S9        29.97S
WINONA         MOSUNNY   81  63  54 SW3       29.94F
AUSTIN         MOSUNNY   82  61  47 SW6       29.97S
PRESTON        MOSUNNY   78  62  57 SW7       29.99S
$$
ABBREVIATIONS USED IN REMARKS
   TC - TEMPERATURES IN CELSIUS
  WCI - WIND CHILL INDEX
   HX - HEAT INDEX
  VSB - VISIBILITY
$$



USA.gov is the U.S. government's official web portal to all federal, state and local government web resources and services.